| time (UTC) | temp C | wind direction | speed KPH | gust KPH | rain 1hr cm | rain 24hr cm | rain mn cm | humidity % | barometer mb |
| 20260507003618 | 11 | 204 | 0.0 | 1.6 | 0.00 | 0.71 | 0.71 | 53 | 1013.9 |
| 20260507003113 | 11 | 184 | 1.6 | 3.2 | 0.00 | 0.71 | 0.71 | 53 | 1013.9 |
| 20260507002610 | 11 | 199 | 1.6 | 3.2 | 0.00 | 0.71 | 0.71 | 52 | 1013.9 |
| 20260507002105 | 11 | 272 | 1.6 | 1.6 | 0.00 | 0.71 | 0.71 | 50 | 1013.7 |
| 20260507001602 | 11 | 278 | 3.2 | 3.2 | 0.00 | 0.71 | 0.71 | 50 | 1013.8 |
| 20260507001100 | 11 | 278 | 0.0 | 1.6 | 0.00 | 0.71 | 0.71 | 49 | 1013.7 |
| 20260507000556 | 11 | 313 | 1.6 | 4.8 | 0.00 | 0.71 | 0.71 | 49 | 1013.6 |
| 20260507000051 | 11 | 215 | 1.6 | 4.8 | 0.00 | 0.71 | 0.71 | 49 | 1013.6 |
| 20260506235549 | 11 | 263 | 3.2 | 6.4 | 0.00 | 0.71 | 0.71 | 48 | 1013.6 |
| 20260506235044 | 11 | 293 | 4.8 | 6.4 | 0.00 | 0.71 | 0.71 | 48 | 1013.7 |
| 20260506234542 | 12 | 313 | 4.8 | 6.4 | 0.00 | 0.71 | 0.71 | 47 | 1013.7 |
| 20260506234039 | 12 | 174 | 3.2 | 3.2 | 0.00 | 0.71 | 0.71 | 47 | 1013.7 |
| 20260506233536 | 11 | 343 | 1.6 | 1.6 | 0.00 | 0.71 | 0.71 | 48 | 1013.7 |
| 20260506233033 | 11 | 278 | 1.6 | 6.4 | 0.00 | 0.71 | 0.71 | 46 | 1013.6 |
| 20260506232529 | 11 | 298 | 3.2 | 9.7 | 0.00 | 0.71 | 0.71 | 46 | 1014.0 |
| 20260506232024 | 11 | 302 | 3.2 | 3.2 | 0.00 | 0.71 | 0.71 | 47 | 1014.1 |
| 20260506231522 | 12 | 314 | 3.2 | 14.5 | 0.00 | 0.71 | 0.71 | 46 | 1013.9 |
| 20260506231020 | 12 | 298 | 4.8 | 6.4 | 0.00 | 0.71 | 0.71 | 45 | 1013.9 |
| 20260506230516 | 12 | 301 | 8.0 | 11.3 | 0.00 | 0.71 | 0.71 | 45 | 1013.8 |
| 20260506230014 | 12 | 291 | 6.4 | 11.3 | 0.00 | 0.71 | 0.71 | 44 | 1013.9 |
| 20260506225510 | 12 | 200 | 3.2 | 4.8 | 0.00 | 0.71 | 0.71 | 45 | 1014.0 |
| 20260506225007 | 12 | 283 | 6.4 | 9.7 | 0.00 | 0.71 | 0.71 | 44 | 1014.1 |
| 20260506224503 | 12 | 283 | 1.6 | 3.2 | 0.00 | 0.71 | 0.71 | 45 | 1014.2 |
| 20260506223955 | 12 | 282 | 6.4 | 11.3 | 0.00 | 0.71 | 0.71 | 44 | 1013.8 |
| 20260506223451 | 12 | 305 | 4.8 | 11.3 | 0.00 | 0.71 | 0.71 | 44 | 1014.1 |
| 20260506222948 | 12 | 301 | 1.6 | 3.2 | 0.00 | 0.71 | 0.71 | 45 | 1013.9 |
| 20260506222444 | 12 | 298 | 1.6 | 4.8 | 0.00 | 0.71 | 0.71 | 44 | 1014.0 |
| 20260506221941 | 12 | 307 | 8.0 | 11.3 | 0.00 | 0.71 | 0.71 | 44 | 1013.8 |
| 20260506221438 | 12 | 317 | 4.8 | 9.7 | 0.00 | 0.71 | 0.71 | 44 | 1013.9 |
| 20260506220935 | 11 | 285 | 4.8 | 6.4 | 0.00 | 0.71 | 0.71 | 44 | 1013.8 |
| 20260506220426 | 12 | 296 | 4.8 | 6.4 | 0.00 | 0.71 | 0.71 | 43 | 1013.9 |
| 20260506215922 | 12 | 277 | 6.4 | 6.4 | 0.00 | 0.71 | 0.71 | 46 | 1014.0 |
| 20260506215418 | 12 | 290 | 6.4 | 9.7 | 0.00 | 0.71 | 0.71 | 46 | 1013.8 |
| 20260506214914 | 12 | 335 | 3.2 | 6.4 | 0.00 | 0.71 | 0.71 | 45 | 1013.9 |
| 20260506214412 | 12 | 292 | 6.4 | 9.7 | 0.00 | 0.71 | 0.71 | 45 | 1013.9 |
| 20260506213909 | 12 | 313 | 6.4 | 9.7 | 0.00 | 0.71 | 0.71 | 45 | 1013.9 |
| 20260506213407 | 12 | 309 | 3.2 | 4.8 | 0.00 | 0.71 | 0.71 | 45 | 1013.7 |
| 20260506212904 | 12 | 302 | 4.8 | 9.7 | 0.00 | 0.71 | 0.71 | 44 | 1013.6 |
| 20260506212400 | 12 | 310 | 1.6 | 3.2 | 0.00 | 0.71 | 0.71 | 45 | 1013.5 |
| 20260506211854 | 12 | 351 | 4.8 | 6.4 | 0.00 | 0.71 | 0.71 | 45 | 1013.6 |
| 20260506211350 | 12 | 342 | 4.8 | 14.5 | 0.00 | 0.71 | 0.71 | 43 | 1013.6 |
| 20260506210848 | 12 | 291 | 4.8 | 6.4 | 0.00 | 0.71 | 0.71 | 44 | 1013.5 |
| 20260506210344 | 12 | 303 | 4.8 | 6.4 | 0.00 | 0.71 | 0.71 | 45 | 1013.4 |
| 20260506205842 | 12 | 0 | 4.8 | 12.9 | 0.00 | 0.71 | 0.71 | 44 | 1013.5 |
| 20260506205337 | 12 | 337 | 6.4 | 14.5 | 0.00 | 0.71 | 0.71 | 43 | 1013.5 |
| 20260506204834 | 12 | 302 | 1.6 | 6.4 | 0.00 | 0.71 | 0.71 | 46 | 1013.3 |
| 20260506204331 | 12 | 344 | 8.0 | 11.3 | 0.00 | 0.71 | 0.71 | 44 | 1013.4 |
| 20260506203829 | 12 | 308 | 6.4 | 11.3 | 0.00 | 0.71 | 0.71 | 44 | 1013.4 |
| 20260506203326 | 12 | 285 | 1.6 | 4.8 | 0.00 | 0.71 | 0.71 | 46 | 1013.2 |
| 20260506202823 | 12 | 308 | 6.4 | 11.3 | 0.00 | 0.71 | 0.71 | 44 | 1013.2 |
| 20260506202320 | 12 | 317 | 6.4 | 11.3 | 0.00 | 0.71 | 0.71 | 43 | 1013.3 |
| 20260506201816 | 12 | 258 | 3.2 | 9.7 | 0.00 | 0.71 | 0.71 | 44 | 1013.4 |
| 20260506201314 | 12 | 24 | 6.4 | 6.4 | 0.00 | 0.71 | 0.71 | 44 | 1013.4 |
| 20260506200811 | 12 | 298 | 8.0 | 11.3 | 0.00 | 0.71 | 0.71 | 42 | 1013.5 |
| 20260506200307 | 12 | 281 | 4.8 | 11.3 | 0.00 | 0.71 | 0.71 | 43 | 1013.4 |
| 20260506195803 | 12 | 320 | 8.0 | 11.3 | 0.00 | 0.71 | 0.71 | 42 | 1013.3 |
| 20260506195300 | 12 | 298 | 12.9 | 17.7 | 0.00 | 0.71 | 0.71 | 42 | 1013.4 |
| 20260506194757 | 13 | 287 | 4.8 | 14.5 | 0.00 | 0.71 | 0.71 | 42 | 1013.3 |
| 20260506194253 | 13 | 268 | 4.8 | 6.4 | 0.00 | 0.71 | 0.71 | 43 | 1013.1 |
| 20260506193751 | 13 | 320 | 6.4 | 14.5 | 0.00 | 0.71 | 0.71 | 43 | 1013.1 |
| 20260506193248 | 13 | 258 | 9.7 | 16.1 | 0.00 | 0.71 | 0.71 | 43 | 1013.2 |
| 20260506192744 | 13 | 9 | 4.8 | 9.7 | 0.00 | 0.71 | 0.71 | 42 | 1013.1 |
| 20260506192241 | 13 | 298 | 6.4 | 9.7 | 0.00 | 0.71 | 0.71 | 41 | 1013.4 |
| 20260506191738 | 13 | 297 | 9.7 | 16.1 | 0.00 | 0.71 | 0.71 | 41 | 1013.4 |
| 20260506191234 | 14 | 295 | 9.7 | 12.9 | 0.00 | 0.71 | 0.71 | 43 | 1013.1 |
| 20260506190731 | 13 | 2 | 8.0 | 14.5 | 0.00 | 0.71 | 0.71 | 44 | 1013.5 |
| 20260506190228 | 13 | 306 | 6.4 | 6.4 | 0.00 | 0.71 | 0.71 | 43 | 1013.3 |
| 20260506185725 | 13 | 166 | 1.6 | 1.6 | 0.00 | 0.71 | 0.71 | 45 | 1013.3 |
| 20260506185221 | 13 | 330 | 4.8 | 6.4 | 0.00 | 0.71 | 0.71 | 43 | 1013.6 |
| 20260506184719 | 13 | 343 | 4.8 | 9.7 | 0.00 | 0.71 | 0.71 | 43 | 1013.6 |
| 20260506184216 | 13 | 298 | 8.0 | 11.3 | 0.00 | 0.71 | 0.71 | 42 | 1013.6 |
| 20260506183713 | 13 | 297 | 4.8 | 16.1 | 0.00 | 0.71 | 0.71 | 42 | 1013.5 |
| 20260506183208 | 13 | 13 | 6.4 | 9.7 | 0.00 | 0.71 | 0.71 | 45 | 1013.0 |
| 20260506182706 | 13 | 321 | 4.8 | 11.3 | 0.00 | 0.71 | 0.71 | 45 | 1013.2 |
| 20260506182203 | 13 | 285 | 8.0 | 9.7 | 0.00 | 0.71 | 0.71 | 43 | 1013.3 |
| 20260506181701 | 13 | 262 | 3.2 | 6.4 | 0.00 | 0.71 | 0.71 | 45 | 1013.3 |
| 20260506181158 | 12 | 272 | 3.2 | 6.4 | 0.00 | 0.71 | 0.71 | 44 | 1013.5 |
| 20260506180655 | 12 | 304 | 6.4 | 11.3 | 0.00 | 0.71 | 0.71 | 45 | 1013.2 |
| 20260506180151 | 13 | 326 | 1.6 | 9.7 | 0.00 | 0.71 | 0.71 | 46 | 1013.2 |
| 20260506175647 | 13 | 268 | 6.4 | 12.9 | 0.00 | 0.71 | 0.71 | 44 | 1013.3 |
| 20260506175145 | 13 | 281 | 6.4 | 9.7 | 0.00 | 0.71 | 0.71 | 45 | 1013.4 |
| 20260506174638 | 13 | 289 | 3.2 | 3.2 | 0.00 | 0.71 | 0.71 | 47 | 1013.5 |
| 20260506174134 | 13 | 353 | 9.7 | 14.5 | 0.00 | 0.71 | 0.71 | 47 | 1013.6 |
| 20260506173631 | 12 | 42 | 0.0 | 9.7 | 0.00 | 0.71 | 0.71 | 49 | 1013.6 |
| 20260506173129 | 13 | 280 | 6.4 | 9.7 | 0.00 | 0.71 | 0.71 | 46 | 1013.6 |
| 20260506172625 | 13 | 354 | 3.2 | 6.4 | 0.00 | 0.71 | 0.71 | 45 | 1013.5 |
| 20260506172116 | 13 | 338 | 3.2 | 9.7 | 0.00 | 0.71 | 0.71 | 47 | 1013.5 |
| 20260506171613 | 13 | 296 | 3.2 | 12.9 | 0.00 | 0.71 | 0.71 | 47 | 1013.5 |
| 20260506171110 | 13 | 338 | 6.4 | 11.3 | 0.00 | 0.71 | 0.71 | 47 | 1013.6 |
| 20260506170607 | 13 | 298 | 3.2 | 11.3 | 0.00 | 0.71 | 0.71 | 48 | 1013.5 |
| 20260506170105 | 13 | 22 | 1.6 | 6.4 | 0.00 | 0.71 | 0.71 | 49 | 1013.6 |
| 20260506165603 | 13 | 312 | 3.2 | 14.5 | 0.00 | 0.71 | 0.71 | 45 | 1013.7 |
| 20260506165054 | 13 | 313 | 6.4 | 9.7 | 0.00 | 0.71 | 0.71 | 46 | 1013.6 |
| 20260506164551 | 13 | 327 | 3.2 | 9.7 | 0.00 | 0.71 | 0.71 | 47 | 1013.4 |
| 20260506164048 | 12 | 2 | 3.2 | 9.7 | 0.00 | 0.71 | 0.71 | 47 | 1013.4 |
| 20260506163543 | 13 | 314 | 6.4 | 9.7 | 0.00 | 0.71 | 0.71 | 47 | 1013.5 |
| 20260506163039 | 13 | 309 | 6.4 | 9.7 | 0.00 | 0.71 | 0.71 | 46 | 1013.6 |
| 20260506162536 | 12 | 304 | 6.4 | 9.7 | 0.00 | 0.71 | 0.71 | 48 | 1013.6 |
| 20260506162033 | 13 | 327 | 3.2 | 11.3 | 0.00 | 0.71 | 0.71 | 46 | 1013.8 |
| 20260506161530 | 13 | 290 | 8.0 | 9.7 | 0.00 | 0.71 | 0.71 | 46 | 1013.4 |
| 20260506161021 | 13 | 282 | 3.2 | 6.4 | 0.00 | 0.71 | 0.71 | 46 | 1013.5 |
| 20260506160519 | 13 | 131 | 3.2 | 4.8 | 0.00 | 0.71 | 0.71 | 47 | 1013.5 |
| 20260506160016 | 13 | 353 | 3.2 | 9.7 | 0.00 | 0.71 | 0.71 | 49 | 1013.5 |
| 20260506155515 | 12 | 332 | 6.4 | 16.1 | 0.00 | 0.71 | 0.71 | 50 | 1013.5 |
| 20260506153646 | 12 | 288 | 9.7 | 12.9 | 0.00 | 0.71 | 0.71 | 50 | 1013.3 |
| 20260506153144 | 12 | 309 | 4.8 | 14.5 | 0.00 | 0.71 | 0.71 | 50 | 1013.3 |
| 20260506152640 | 12 | 4 | 1.6 | 9.7 | 0.00 | 0.71 | 0.71 | 52 | 1013.0 |
| 20260506152138 | 12 | 37 | 4.8 | 12.9 | 0.00 | 0.71 | 0.71 | 53 | 1013.1 |
| 20260506151636 | 11 | 357 | 3.2 | 12.9 | 0.00 | 0.71 | 0.71 | 52 | 1013.1 |
| 20260506151133 | 12 | 10 | 4.8 | 11.3 | 0.00 | 0.71 | 0.71 | 55 | 1013.1 |
| 20260506150630 | 11 | 317 | 3.2 | 11.3 | 0.00 | 0.71 | 0.71 | 54 | 1013.1 |
| 20260506150127 | 11 | 308 | 6.4 | 9.7 | 0.00 | 0.71 | 0.71 | 56 | 1013.1 |
| 20260506145624 | 11 | 297 | 1.6 | 6.4 | 0.00 | 0.71 | 0.71 | 58 | 1012.9 |
| 20260506145120 | 11 | 307 | 6.4 | 11.3 | 0.00 | 0.71 | 0.71 | 56 | 1013.2 |
| 20260506144618 | 11 | 2 | 4.8 | 12.9 | 0.00 | 0.71 | 0.71 | 59 | 1012.9 |
| 20260506144114 | 11 | 329 | 6.4 | 12.9 | 0.00 | 0.71 | 0.71 | 60 | 1012.9 |
| 20260506143612 | 11 | 316 | 6.4 | 11.3 | 0.00 | 0.71 | 0.71 | 63 | 1012.6 |
| 20260506143110 | 11 | 329 | 6.4 | 6.4 | 0.00 | 0.71 | 0.71 | 64 | 1012.6 |
| 20260506142608 | 11 | 287 | 3.2 | 11.3 | 0.00 | 0.71 | 0.71 | 63 | 1012.5 |
| 20260506142106 | 10 | 325 | 3.2 | 9.7 | 0.00 | 0.71 | 0.71 | 67 | 1012.4 |
| 20260506141603 | 10 | 20 | 8.0 | 14.5 | 0.00 | 0.71 | 0.71 | 67 | 1012.2 |
| 20260506141102 | 10 | 6 | 3.2 | 4.8 | 0.00 | 0.71 | 0.71 | 69 | 1012.2 |
| 20260506140559 | 10 | 313 | 4.8 | 6.4 | 0.00 | 0.71 | 0.71 | 71 | 1012.4 |
| 20260506140056 | 10 | 334 | 4.8 | 16.1 | 0.00 | 0.71 | 0.71 | 69 | 1012.2 |
| 20260506135553 | 10 | 17 | 6.4 | 9.7 | 0.00 | 0.71 | 0.71 | 71 | 1012.4 |
| 20260506135049 | 10 | 309 | 8.0 | 12.9 | 0.00 | 0.71 | 0.71 | 71 | 1012.3 |
| 20260506134546 | 10 | 348 | 6.4 | 6.4 | 0.00 | 0.71 | 0.71 | 72 | 1012.4 |
| 20260506134041 | 9 | 301 | 6.4 | 9.7 | 0.00 | 0.71 | 0.71 | 75 | 1012.3 |
| 20260506133539 | 9 | 319 | 4.8 | 11.3 | 0.00 | 0.71 | 0.71 | 74 | 1012.3 |
| 20260506133036 | 9 | 310 | 1.6 | 4.8 | 0.00 | 0.71 | 0.71 | 76 | 1012.4 |
| 20260506132533 | 9 | 34 | 1.6 | 11.3 | 0.00 | 0.71 | 0.71 | 78 | 1012.4 |
| 20260506132030 | 9 | 331 | 3.2 | 6.4 | 0.00 | 0.71 | 0.71 | 78 | 1012.4 |
| 20260506131527 | 8 | 295 | 3.2 | 11.3 | 0.00 | 0.71 | 0.71 | 80 | 1012.4 |
| 20260506131023 | 8 | 307 | 3.2 | 4.8 | 0.00 | 0.71 | 0.71 | 82 | 1012.3 |
| 20260506130520 | 8 | 335 | 4.8 | 6.4 | 0.00 | 0.71 | 0.71 | 82 | 1012.1 |
| 20260506130018 | 8 | 356 | 6.4 | 9.7 | 0.00 | 0.71 | 0.71 | 83 | 1011.9 |
| 20260506125516 | 8 | 321 | 3.2 | 6.4 | 0.00 | 0.71 | 0.71 | 84 | 1011.8 |
| 20260506125013 | 8 | 294 | 4.8 | 4.8 | 0.00 | 0.71 | 0.71 | 84 | 1011.6 |
| 20260506124511 | 8 | 295 | 6.4 | 9.7 | 0.00 | 0.71 | 0.71 | 86 | 1011.7 |
| 20260506124009 | 8 | 293 | 3.2 | 4.8 | 0.00 | 0.71 | 0.71 | 88 | 1011.6 |
| 20260506123507 | 7 | 293 | 0.0 | 3.2 | 0.00 | 0.71 | 0.71 | 90 | 1011.9 |
| 20260506123004 | 7 | 283 | 3.2 | 4.8 | 0.00 | 0.71 | 0.71 | 90 | 1011.6 |
| 20260506122501 | 7 | 293 | 3.2 | 6.4 | 0.00 | 0.71 | 0.71 | 90 | 1011.8 |
| 20260506121959 | 7 | 295 | 4.8 | 9.7 | 0.00 | 0.71 | 0.71 | 91 | 1011.7 |
| 20260506121456 | 7 | 290 | 3.2 | 4.8 | 0.00 | 0.71 | 0.71 | 91 | 1011.7 |
| 20260506120952 | 7 | 298 | 3.2 | 4.8 | 0.00 | 0.71 | 0.71 | 92 | 1011.4 |
| 20260506120450 | 7 | 286 | 4.8 | 6.4 | 0.00 | 0.71 | 0.71 | 93 | 1011.6 |
| 20260506115947 | 7 | 320 | 1.6 | 4.8 | 0.00 | 0.71 | 0.71 | 94 | 1011.3 |
| 20260506115445 | 6 | 297 | 3.2 | 6.4 | 0.00 | 0.71 | 0.71 | 95 | 1011.0 |
| 20260506114943 | 6 | 299 | 1.6 | 1.6 | 0.00 | 0.71 | 0.71 | 95 | 1010.9 |
| 20260506114440 | 6 | 327 | 1.6 | 4.8 | 0.00 | 0.71 | 0.71 | 95 | 1011.1 |
| 20260506113939 | 6 | 293 | 0.0 | 1.6 | 0.00 | 0.71 | 0.71 | 95 | 1011.1 |
| 20260506113437 | 6 | 304 | 1.6 | 1.6 | 0.00 | 0.71 | 0.71 | 96 | 1010.7 |
| 20260506112933 | 6 | 322 | 0.0 | 1.6 | 0.00 | 0.71 | 0.71 | 96 | 1010.7 |
| 20260506112431 | 6 | 317 | 0.0 | 0.0 | 0.00 | 0.71 | 0.71 | 96 | 1010.8 |
| 20260506111927 | 6 | 290 | 3.2 | 3.2 | 0.00 | 0.71 | 0.71 | 96 | 1010.7 |
| 20260506111426 | 6 | 315 | 1.6 | 1.6 | 0.00 | 0.71 | 0.71 | 96 | 1010.4 |
| 20260506110922 | 6 | 317 | 1.6 | 3.2 | 0.00 | 0.71 | 0.71 | 96 | 1010.7 |
| 20260506110420 | 6 | 301 | 1.6 | 1.6 | 0.00 | 0.71 | 0.71 | 96 | 1010.7 |
| 20260506105916 | 6 | 238 | 0.0 | 0.0 | 0.00 | 0.71 | 0.71 | 96 | 1010.8 |
| 20260506105413 | 6 | 232 | 0.0 | 0.0 | 0.00 | 0.71 | 0.71 | 96 | 1010.9 |
| 20260506104910 | 6 | 240 | 0.0 | 1.6 | 0.00 | 0.71 | 0.71 | 96 | 1010.8 |
| 20260506104408 | 6 | 278 | 0.0 | 1.6 | 0.00 | 0.71 | 0.71 | 96 | 1010.4 |
| 20260506103906 | 6 | 298 | 3.2 | 3.2 | 0.00 | 0.71 | 0.71 | 96 | 1010.3 |
| 20260506103403 | 6 | 302 | 0.0 | 3.2 | 0.00 | 0.71 | 0.71 | 96 | 1010.3 |
| 20260506102900 | 6 | 302 | 1.6 | 3.2 | 0.00 | 0.71 | 0.71 | 96 | 1010.4 |
| 20260506102358 | 6 | 300 | 3.2 | 4.8 | 0.00 | 0.71 | 0.71 | 96 | 1010.4 |
| 20260506101854 | 6 | 299 | 1.6 | 3.2 | 0.00 | 0.71 | 0.71 | 96 | 1010.2 |
| 20260506101350 | 6 | 291 | 1.6 | 4.8 | 0.00 | 0.71 | 0.71 | 96 | 1009.9 |
| 20260506100848 | 6 | 297 | 0.0 | 1.6 | 0.00 | 0.71 | 0.71 | 96 | 1009.5 |
| 20260506100347 | 6 | 307 | 1.6 | 3.2 | 0.00 | 0.71 | 0.71 | 97 | 1009.4 |
| 20260506095844 | 6 | 64 | 0.0 | 0.0 | 0.00 | 0.71 | 0.71 | 96 | 1009.3 |
| 20260506095342 | 6 | 64 | 0.0 | 0.0 | 0.00 | 0.71 | 0.71 | 96 | 1009.3 |
| 20260506094838 | 6 | 64 | 0.0 | 0.0 | 0.00 | 0.71 | 0.71 | 96 | 1009.5 |
| 20260506094337 | 6 | 64 | 0.0 | 0.0 | 0.00 | 0.71 | 0.71 | 96 | 1009.8 |
| 20260506093835 | 6 | 64 | 0.0 | 0.0 | 0.00 | 0.71 | 0.71 | 96 | 1009.5 |
| 20260506093331 | 6 | 64 | 0.0 | 0.0 | 0.00 | 0.71 | 0.71 | 96 | 1009.1 |
| 20260506092829 | 6 | 64 | 0.0 | 0.0 | 0.00 | 0.71 | 0.71 | 96 | 1009.6 |
| 20260506092327 | 6 | 64 | 0.0 | 0.0 | 0.00 | 0.71 | 0.71 | 96 | 1009.6 |
| 20260506091819 | 6 | 64 | 0.0 | 0.0 | 0.00 | 0.71 | 0.71 | 96 | 1009.6 |
| 20260506091316 | 6 | 64 | 0.0 | 0.0 | 0.00 | 0.71 | 0.71 | 96 | 1009.8 |
| 20260506090814 | 6 | 328 | 0.0 | 3.2 | 0.00 | 0.71 | 0.71 | 96 | 1009.9 |
| 20260506090311 | 6 | 305 | 1.6 | 4.8 | 0.00 | 0.71 | 0.71 | 96 | 1009.9 |
| 20260506085807 | 6 | 310 | 1.6 | 3.2 | 0.00 | 0.71 | 0.71 | 96 | 1010.0 |
| 20260506085306 | 6 | 287 | 1.6 | 4.8 | 0.00 | 0.71 | 0.71 | 96 | 1010.0 |
| 20260506084800 | 6 | 290 | 0.0 | 0.0 | 0.00 | 0.71 | 0.71 | 96 | 1009.5 |
| 20260506084257 | 6 | 310 | 0.0 | 0.0 | 0.13 | 0.71 | 0.71 | 96 | 1009.5 |
| 20260506083754 | 6 | 309 | 0.0 | 0.0 | 0.13 | 0.71 | 0.71 | 96 | 1009.4 |
| 20260506083252 | 6 | 323 | 0.0 | 0.0 | 0.00 | 0.69 | 0.69 | 96 | 1009.6 |
| 20260506082749 | 6 | 329 | 0.0 | 1.6 | 0.18 | 0.69 | 0.69 | 96 | 1009.6 |
| 20260506082249 | 6 | 315 | 0.0 | 0.0 | 0.18 | 0.69 | 0.69 | 96 | 1010.0 |
| 20260506081747 | 6 | 304 | 0.0 | 1.6 | 0.00 | 0.66 | 0.66 | 96 | 1009.9 |
| 20260506081244 | 6 | 1 | 0.0 | 0.0 | 0.00 | 0.66 | 0.66 | 96 | 1009.7 |
| 20260506080742 | 6 | 310 | 0.0 | 0.0 | 0.00 | 0.66 | 0.66 | 96 | 1009.8 |
| 20260506080238 | 6 | 328 | 0.0 | 1.6 | 0.00 | 0.66 | 0.66 | 96 | 1009.9 |
| 20260506073222 | 7 | 345 | 3.2 | 3.2 | 0.13 | 0.66 | 0.66 | 96 | 1009.3 |
| 20260506072719 | 6 | 334 | 0.0 | 0.0 | 0.00 | 0.64 | 0.64 | 97 | 1009.5 |
| 20260506072217 | 6 | 352 | 0.0 | 1.6 | 0.00 | 0.64 | 0.64 | 97 | 1009.5 |
| 20260506071714 | 6 | 358 | 1.6 | 3.2 | 0.18 | 0.64 | 0.64 | 97 | 1009.2 |
| 20260506071213 | 7 | 344 | 1.6 | 3.2 | 0.18 | 0.64 | 0.64 | 97 | 1009.6 |
| 20260506070709 | 7 | 298 | 1.6 | 3.2 | 0.00 | 0.61 | 0.61 | 97 | 1009.9 |
| 20260506070206 | 7 | 296 | 1.6 | 3.2 | 0.13 | 0.61 | 0.61 | 97 | 1010.2 |
| 20260506062143 | 7 | 307 | 0.0 | 0.0 | 0.30 | 0.51 | 0.51 | 97 | 1009.6 |
| 20260506061639 | 7 | 328 | 3.2 | 4.8 | 0.30 | 0.48 | 0.48 | 97 | 1009.6 |
| 20260506061136 | 7 | 324 | 3.2 | 4.8 | 0.30 | 0.46 | 0.46 | 97 | 1009.7 |
| 20260506060635 | 7 | 311 | 3.2 | 3.2 | 0.13 | 0.43 | 0.43 | 97 | 1009.8 |
| 20260506060131 | 7 | 325 | 3.2 | 6.4 | 0.18 | 0.41 | 0.41 | 97 | 1010.1 |
| 20260506051103 | 7 | 337 | 0.0 | 0.0 | 0.30 | 0.18 | 0.18 | 97 | 1009.9 |
| 20260506050601 | 7 | 326 | 0.0 | 1.6 | 0.13 | 0.15 | 0.15 | 97 | 1009.8 |
| 20260506045052 | 7 | 335 | 0.0 | 1.6 | 0.00 | 0.10 | 0.10 | 97 | 1009.5 |
| 20260506044550 | 7 | 317 | 0.0 | 0.0 | 0.13 | 0.10 | 0.10 | 97 | 1009.5 |
| 20260506044046 | 7 | 316 | 1.6 | 1.6 | 0.13 | 0.10 | 0.10 | 97 | 1009.8 |
| 20260506043543 | 7 | 315 | 0.0 | 0.0 | 0.00 | 0.08 | 0.08 | 97 | 1009.6 |
| 20260506043042 | 7 | 352 | 0.0 | 1.6 | 0.00 | 0.08 | 0.08 | 97 | 1009.5 |
| 20260506042540 | 7 | 308 | 0.0 | 0.0 | 0.18 | 0.08 | 0.08 | 97 | 1009.7 |
| 20260506042038 | 7 | 309 | 0.0 | 0.0 | 0.18 | 0.08 | 0.08 | 97 | 1009.7 |
| 20260506041536 | 7 | 308 | 0.0 | 1.6 | 0.13 | 0.05 | 0.05 | 97 | 1009.8 |
| 20260506041033 | 7 | 305 | 0.0 | 1.6 | 0.30 | 0.05 | 0.05 | 97 | 1009.7 |
| 20260506040531 | 7 | 339 | 0.0 | 3.2 | 0.18 | 0.03 | 0.03 | 97 | 1009.9 |
| 20260506040026 | 7 | 333 | 0.0 | 0.0 | 0.13 | 0.00 | 0.00 | 97 | 1009.9 |
| 20260506035524 | 8 | 323 | 0.0 | 0.0 | 0.30 | 2.74 | 2.74 | 97 | 1009.9 |
| 20260506035020 | 8 | 308 | 0.0 | 0.0 | 0.18 | 2.72 | 2.72 | 97 | 1010.0 |
| 20260506034518 | 8 | 306 | 3.2 | 3.2 | 0.13 | 2.69 | 2.69 | 97 | 1010.0 |
| 20260506034015 | 8 | 299 | 1.6 | 1.6 | 0.18 | 2.67 | 2.67 | 97 | 1009.9 |
| 20260506033512 | 8 | 322 | 0.0 | 1.6 | 0.36 | 2.67 | 2.67 | 97 | 1009.9 |
| 20260506033009 | 8 | 21 | 0.0 | 0.0 | 0.30 | 2.64 | 2.64 | 97 | 1009.8 |
| 20260506032506 | 8 | 348 | 0.0 | 0.0 | 0.18 | 2.59 | 2.59 | 97 | 1009.6 |
| 20260506032002 | 8 | 14 | 0.0 | 0.0 | 0.30 | 2.59 | 2.59 | 97 | 1009.6 |
| 20260506031500 | 8 | 332 | 1.6 | 3.2 | 0.30 | 2.57 | 2.57 | 97 | 1009.7 |
| 20260506030957 | 8 | 345 | 0.0 | 1.6 | 0.30 | 2.54 | 2.54 | 97 | 1009.9 |
| 20260506030455 | 8 | 338 | 1.6 | 1.6 | 0.30 | 2.51 | 2.51 | 97 | 1009.9 |
| 20260506025952 | 8 | 306 | 1.6 | 1.6 | 0.18 | 2.49 | 2.49 | 97 | 1010.0 |
| 20260506025449 | 8 | 48 | 1.6 | 3.2 | 0.13 | 2.46 | 2.46 | 97 | 1009.8 |
| 20260506024945 | 8 | 83 | 0.0 | 0.0 | 0.30 | 2.44 | 2.44 | 97 | 1010.1 |
| 20260506024442 | 8 | 111 | 0.0 | 0.0 | 0.30 | 2.41 | 2.41 | 97 | 1010.0 |
| 20260506023938 | 8 | 121 | 0.0 | 0.0 | 0.30 | 2.39 | 2.39 | 97 | 1010.0 |
| 20260506023435 | 8 | 121 | 0.0 | 0.0 | 0.48 | 2.36 | 2.36 | 97 | 1010.0 |
| 20260506022932 | 8 | 152 | 0.0 | 0.0 | 0.30 | 2.31 | 2.31 | 97 | 1010.2 |
| 20260506022429 | 8 | 128 | 0.0 | 0.0 | 0.43 | 2.29 | 2.29 | 97 | 1010.1 |
| 20260506021927 | 8 | 234 | 0.0 | 0.0 | 0.48 | 2.26 | 2.26 | 97 | 1010.1 |
| 20260506021424 | 8 | 272 | 0.0 | 0.0 | 0.48 | 2.21 | 2.21 | 97 | 1010.3 |
| 20260506020921 | 8 | 255 | 0.0 | 0.0 | 0.43 | 2.18 | 2.18 | 97 | 1010.0 |
| 20260506020419 | 8 | 213 | 0.0 | 0.0 | 0.30 | 2.13 | 2.13 | 97 | 1010.0 |
| 20260506015916 | 8 | 164 | 0.0 | 0.0 | 0.30 | 2.11 | 2.11 | 97 | 1010.1 |
| 20260506015414 | 8 | 302 | 1.6 | 3.2 | 0.30 | 2.08 | 2.08 | 97 | 1010.1 |
| 20260506014910 | 8 | 285 | 0.0 | 1.6 | 0.30 | 2.06 | 2.06 | 97 | 1009.9 |
| 20260506014407 | 8 | 289 | 1.6 | 3.2 | 0.48 | 2.03 | 2.03 | 97 | 1010.0 |
| 20260506013904 | 8 | 282 | 1.6 | 3.2 | 0.30 | 1.98 | 1.98 | 97 | 1010.1 |
| 20260506013402 | 8 | 301 | 0.0 | 0.0 | 0.13 | 1.96 | 1.96 | 97 | 1009.8 |
| 20260506012857 | 8 | 284 | 0.0 | 0.0 | 0.18 | 1.93 | 1.93 | 97 | 1009.8 |
| 20260506012354 | 8 | 26 | 0.0 | 0.0 | 0.30 | 1.93 | 1.93 | 97 | 1009.5 |
| 20260506011851 | 8 | 304 | 0.0 | 0.0 | 0.30 | 1.91 | 1.91 | 97 | 1009.5 |
| 20260506011348 | 8 | 353 | 0.0 | 0.0 | 0.30 | 1.88 | 1.88 | 97 | 1009.5 |
| 20260506010845 | 8 | 308 | 0.0 | 1.6 | 0.13 | 1.85 | 1.85 | 97 | 1009.4 |
| 20260506010344 | 8 | 302 | 3.2 | 3.2 | 0.18 | 1.83 | 1.83 | 96 | 1009.6 |
| 20260506005840 | 8 | 303 | 0.0 | 0.0 | 0.13 | 1.80 | 1.80 | 97 | 1009.6 |
| 20260506005337 | 8 | 319 | 0.0 | 0.0 | 0.13 | 1.80 | 1.80 | 97 | 1009.4 |
| 20260506004833 | 8 | 311 | 0.0 | 0.0 | 0.18 | 1.78 | 1.78 | 97 | 1009.4 |
| 20260506004331 | 8 | 338 | 0.0 | 0.0 | 0.30 | 1.78 | 1.78 | 97 | 1009.5 |